Miscellaneous Local Product
Issued by NWS Hastings, NE

Home | Current Version | Previous Version | Text Only | Print | Product List | Glossary On
Versions: 1 2 3 4 5 6 7 8 9 10 11 12 13 14 15 16 17 18 19 20 21 22 23 24 25 26 27 28 29 30 31 32 33 34 35 36 37 38 39 40 41 42 43 44 45 46 47 48 49 50
000
AXUS43 KGID 292302
MISGRI

GID CWA HOURLY WEATHER ROUNDUP
NATIONAL WEATHER SERVICE HASTINGS NE
600 PM CDT FRI MAY 29 2015

NOTE: "FAIR" INDICATES FEW OR NO CLOUDS BELOW 12,000 FEET WITH NO
SIGNIFICANT WEATHER AND/OR OBSTRUCTIONS TO VISIBILITY.

...SOUTH CENTRAL NEBRASKA...

CITY           SKY/WX    TMP DP  RH WIND       PRES   REMARKS
GRAND ISLAND   MOSUNNY   66  53  63 N26G33    30.02R
HASTINGS       MOSUNNY   69  56  62 N25G32    29.99R
KEARNEY        PTSUNNY   64  52  63 N30G37    30.04R
ORD            CLOUDY    55  50  83 N24G30    30.09R
YORK           PTSUNNY   75  59  57 NW20G30   29.95R
AURORA         MOSUNNY   71  56  58 N26G32    29.98R
LEXINGTON      RAIN      58  54  86 N20G28    30.13R
HOLDREGE       MOSUNNY   67  52  58 N24G33    30.03R
HEBRON         PTSUNNY   79  54  41 W6        29.92S

...NEBRASKA PANHANDLE...

CITY           SKY/WX    TMP DP  RH WIND       PRES   REMARKS
CHADRON        CLOUDY    48  45  89 NE13      30.30R
ALLIANCE       LGT RAIN  47  45  93 N17       30.26R
SCOTTSBLUFF    LGT RAIN  53  49  86 N15G23    30.27R
SIDNEY         CLOUDY    51  46  83 N18       30.23S

...WESTERN AND NORTH CENTRAL NEBRASKA...

CITY           SKY/WX    TMP DP  RH WIND       PRES   REMARKS
VALENTINE      CLOUDY    48  45  89 N17G25    30.23R
AINSWORTH      LGT RAIN  49  48  97 N23       30.21R
ONEILL         RAIN      52  51  96 N24G32    30.11R
BROKEN BOW     CLOUDY    57  50  77 N26G33    30.12R
IMPERIAL       PTSUNNY   59  50  72 N24G32    30.15R
NORTH PLATTE   LGT RAIN  53  50  89 N18G25    30.16F
MCCOOK         PTSUNNY   63  53  70 N18G30    30.09R

...EASTERN NEBRASKA...

CITY           SKY/WX    TMP DP  RH WIND       PRES   REMARKS
NORFOLK        CLOUDY    60  54  80 N21G31    30.00R
SO SIOUX CITY  LGT RAIN  62  58  86 N20       29.94R
TEKAMAH        CLOUDY    74  64  71 NW15G25   29.89R THUNDER
COLUMBUS       PTSUNNY   66  55  68 N24G32    29.98R
ALBION         CLOUDY    57  51  79 NW23      30.03R
OMAHA EPPLEY   CLOUDY    78  60  53 S10       29.87F
OFFUTT AFB     CLOUDY    78  61  56 SW9       29.88F
MILLARD        CLOUDY    78  62  56 SW7       29.88F
LINCOLN        PTSUNNY   79  59  50 SW6       29.90F
NEBRASKA CITY  PTSUNNY   75  56  52 SW7       29.91F
BEATRICE       CLOUDY    77  60  56 CALM      29.91S
FALLS CITY     CLOUDY    75  65  70 SW8       29.91F

...NORTHERN KANSAS...

CITY           SKY/WX    TMP DP  RH WIND       PRES   REMARKS
GOODLAND       PTSUNNY   58  54  86 N20G28    30.14R
HILL CITY      MOSUNNY   79  56  45 N6        29.98R
NORTON         RAIN      55  52  88 N28G40    30.05R
PHILLIPSBURG   MOSUNNY   79  55  44 NW6       29.95S
SMITH CENTER   MOSUNNY   73  57  56 N6        29.94S
HAYS           SUNNY     79  55  44 NW8       29.97S
RUSSELL        SUNNY     79  56  45 N6        29.95S
CONCORDIA      PTSUNNY   78  60  53 CALM      29.93S
SALINA         CLOUDY    79  59  50 NW5       29.94S
TOPEKA         CLOUDY    73  66  78 S9        29.94F



USA.gov is the U.S. government's official web portal to all federal, state and local government web resources and services.